Location: Seattle
(47.6064°N, 122.3308°W)
Time: 05:43:59
(UTC-08:00)

S-56A Canister/Altair - Pass Details

Date: 28 November 2020
Orbit: 633 x 2499 km, 38.9° (Epoch: 23 January)

Event Time Altitude Azimuth Distance (km) Brightness Sun altitude
Rises 17:32:19 0° 199° (SSW) 5,913 12.6 -11.6°
Reaches altitude 10° 17:38:02 10° 184° (S) 4,642 11.8 -12.6°
Maximum altitude 17:45:34 19° 147° (SSE) 3,510 10.7 -13.8°
Enters shadow 17:51:35 10° 108° (ESE) 3,677 10.5 -14.7°
Drops below altitude 10° 17:51:44 10° 107° (ESE) 3,696 - -14.8°
Sets 17:55:30 0° 90° (E) 4,353 - -15.4°
